Flag for U.S.A. Weather past 2 weeks in Stockton, California, U.S.A.

Now
64 °F

Clear.


Feels Like: 64 °F
Forecast: 59 / 85 °F
Wind: 6 mph from North

Location: Stockton Metropolitan Airport

Current Time: Aug 20, 2014 at 12:25:55 AM

Latest Report: Aug 19, 2014 at 11:55 PM


Visibility: 10 mi

Pressure: 29.80 "Hg

Humidity: 81%

Dew point: 58 °F

Location of StocktonLocation

Historic Weather in Stockton — Graph

°F

Stockton temperature yesterday

Maximum temperature yesterday: 86 °F (at 3:55 PM)
Minimum temperature yesterday: 59 °F (at 5:55 AM)
Average temperature yesterday: 71 °F

Past Weeks' High & Low Weather Summary

 TemperatureHumidityPressure
High94 °F (Aug 7, 2:55 PM)93% (Aug 13, 5:55 AM)30.03 "Hg (Aug 13, 5:55 AM)
Low56 °F (Aug 13, 5:55 AM)16% (Aug 17, 3:55 PM)29.72 "Hg (Aug 18, 5:55 PM)
Average75 °F53%29.89 "Hg
* Reported Aug 4 10:55 PM — Aug 19 10:55 PM, Stockton, Weather by CustomWeather, © 2014

Note: Actual official high and low records may vary slightly from our data, if they occured in-between our weather recording intervals... More about our weather records

Advertising

Stockton weather history for previous 24 hours

 ConditionsComfort  
Time TempWeatherWind HumidityBarometerVisibility
10:55 PM
Aug 19
66 °FClear.8 mph75%29.79 "Hg10 mi
9:55 PM70 °FClear.6 mph66%29.79 "Hg10 mi
8:55 PM73 °FClear.8 mph57%29.77 "Hg10 mi
7:55 PM77 °FSunny.8 mph50%29.75 "Hg10 mi
6:55 PM82 °FSunny.9 mph44%29.73 "Hg10 mi
5:55 PM83 °FSunny.7 mph44%29.73 "Hg10 mi
4:55 PM84 °FSunny.6 mph41%29.73 "Hg10 mi
3:55 PM86 °FSunny.12 mph39%29.74 "Hg10 mi
2:55 PM84 °FSunny.9 mph41%29.76 "Hg10 mi
1:55 PM83 °FSunny.7 mph44%29.78 "Hg10 mi
12:55 PM78 °FSunny.6 mph50%29.80 "Hg10 mi
11:55 AM75 °FSunny.9 mph55%29.81 "Hg10 mi
10:55 AM72 °FSunny.8 mph59%29.83 "Hg10 mi
9:55 AM68 °FSunny.3 mph70%29.83 "Hg10 mi
8:55 AM65 °FSunny.7 mph76%29.83 "Hg10 mi
7:55 AM60 °FSunny.6 mph90%29.83 "Hg10 mi
6:55 AM59 °FClear.5 mph90%29.81 "Hg10 mi
5:55 AM59 °FClear.6 mph90%29.80 "Hg10 mi
4:55 AM62 °FClear.9 mph80%29.79 "Hg10 mi
3:55 AM62 °FClear.8 mph80%29.79 "Hg10 mi
2:55 AM63 °FClear.14 mph78%29.78 "Hg10 mi
1:55 AM63 °FClear.12 mph78%29.78 "Hg10 mi
12:55 AM63 °FClear.9 mph81%29.78 "Hg10 mi
Weather by CustomWeather, © 2014

See weather overviewHow to use our weather pages